Regional Weather Roundup
Issued by NWS Upton, NY

Current Version | Previous Version | Text Only | Print | Product List | Glossary Off
Versions: 1 2 3 4 5 6 7 8 9 10 11 12 13 14 15 16 17 18 19 20 21 22 23 24 25 26 27 28 29 30 31 32 33 34 35 36 37 38 39 40 41 42 43 44 45 46 47 48 49 50
000 ASUS41 KOKX 071118 RWROKX REGIONAL WEATHER ROUNDUP NATIONAL WEATHER SERVICE NEW YORK NY 700 AM EDT TUE JUL 07 2015 NOTE: "FAIR" INDICATES FEW OR NO CLOUDS BELOW 12,000 FEET WITH NO SIGNIFICANT WEATHER AND/OR OBSTRUCTIONS TO VISIBILITY. NYZ071-072-176-178-NJZ106-104-071200- NEW YORK CITY METRO AREA CITY SKY/WX TMP DP RH WIND PRES REMARKS CENTRAL PARK CLOUDY 77 71 82 S5 30.07S LAGUARDIA APRT PTSUNNY 77 72 83 S7 30.04S KENNEDY INTL CLOUDY 75 72 88 S10 30.06S NEWARK/LIBERTY PTSUNNY 77 72 84 S5 30.04S BRNX BOT. GARD N/A 75 72 88 SE6 30.05S TETERBORO PTSUNNY 77 70 78 S6 30.03S $$ NYZ177-179-078>081-071200- LONG ISLAND NEW YORK CITY SKY/WX TMP DP RH WIND PRES REMARKS FARMINGDALE CLOUDY 75 73 93 S8 30.06S ISLIP CLOUDY 74 72 93 S8 30.05S FOG SHIRLEY CLOUDY 74 73 97 S7 30.08S FOG WESTHAMPTON CLOUDY 74 74 100 S6 30.08F FOG MONTAUK POINT N/A 72 71 97 VRB3 30.11S $$ NYZ052-065-067-071200- HUDSON VALLEY CITY SKY/WX TMP DP RH WIND PRES REMARKS WHITE PLAINS N/A 73 71 93 SE3 30.06S FOG NEWBURGH PTSUNNY 72 70 94 VRB6 30.07S MONTGOMERY CLOUDY 72 68 87 CALM 30.04F POUGHKEEPSIE PTSUNNY 73 68 84 SE5 30.04S ALBANY MOSUNNY 73 66 78 VRB5 30.04S $$ NJZ001-105-106-008-010-013-015-019>022-104-071200- NEW JERSEY CITY SKY/WX TMP DP RH WIND PRES REMARKS NEWARK/LIBERTY PTSUNNY 77 72 84 S5 30.04S TETERBORO PTSUNNY 77 70 78 S6 30.03S CALDWELL PTSUNNY 76 70 82 CALM 30.04F MORRISTOWN CLOUDY 75 70 83 CALM 30.04S HAZE SOMERVILLE SUNNY 74 72 93 S3 30.02S FOG SUSSEX CLOUDY 73 69 87 CALM 30.04S ANDOVER N/A 74 70 87 CALM 30.05S TRENTON CLOUDY 75 73 93 S6 30.03S MILLVILLE CLOUDY 76 74 93 CALM 30.05R ATLANTIC CITY NOT AVBL WRIGHTSTOWN CLOUDY 75 75 99 S5 30.02S TOMS RIVER SUNNY 75 73 94 CALM 30.06R BELMAR PTSUNNY 75 70 83 S5 30.05S $$ PAZ047>061-062-071-071200- EASTERN PENNSYLVANIA CITY SKY/WX TMP DP RH WIND PRES REMARKS PHILADELPHIA MOSUNNY 77 71 82 S7 30.04S ALLENTOWN CLOUDY 75 71 87 S6 30.03S SCRANTON CLOUDY 72 71 97 CALM 30.03F FOG $$ CTZ002-004>006-009-010-012-RIZ004-006-007-MAZ004-011-015-071200- SOUTHERN NEW ENGLAND IN CT CITY SKY/WX TMP DP RH WIND PRES REMARKS BRADLEY INTL CLOUDY 71 66 84 SE6 30.07F HARTFORD CLOUDY 71 68 90 SE7 30.07F FOG DANBURY CLOUDY 71 67 87 CALM 30.08F FOG WTRBRY/OXFORD FOG 70 64 83 SE5 30.10F VSB 1/16 BRIDGEPORT CLOUDY 73 70 90 E6 30.06F MERIDEN CLOUDY 72 68 87 CALM 30.07F NEW HAVEN FOG 71 69 93 E7 30.07F VSB 1 CHESTER FOG 70 70 100 CALM 30.10S VSB<1/4 GROTON FOG 70 69 97 SE8 30.09R VSB 1/4 WILLIMANTIC CLOUDY 69 66 90 CALM 30.10S FOG IN RI CITY SKY/WX TMP DP RH WIND PRES REMARKS PROVIDENCE CLOUDY 71 68 90 SE3 30.11F BLOCK ISLAND CLOUDY 72 70 94 S10 30.11S WESTERLY FOG 71 70 96 SE6 30.11S VSB 1/4 IN MA CITY SKY/WX TMP DP RH WIND PRES REMARKS BOSTON PTSUNNY 68 66 94 SE3 30.11F WORCESTER CLOUDY 67 64 90 VRB6 30.13S FOG WESTFIELD CLOUDY 70 64 81 CALM 30.08F PROVINCETOWN CLOUDY 68 10 10 S8 30.14S NANTUCKET CLOUDY 66 63 90 SE12 30.14S $$ ANZ330-335-338-340-345-350-353-355-071200- COASTAL MARINE OBSERVATIONS STATION/POSITION TIME SKY/WX TEMP WIND PRES VSBY WAVE AIR SEA DIR/SP/G HT/PER (UTC) (F) (DEG/KT/KT) (MB) (MI) (FT/S) NY HARB ENTRANCE 1050 74 72 170/ 10/ 12 1017.3 2/12 4S FIRE IS 1003 69 N/A 2/ 8 20S FIRE ISLAND 1050 72 70 180/ 8/ 8 1017.8 2/13 GREAT SOUTH BAY 1000 73 76 200/ 8/ 10 N/A 23SW MTP 1050 71 70 180/ 4/ 4 1018.7 2/ 7 HUDSON CANYON NOT AVBL KINGS POINT 1000 74 67 180/ 5/ 8 1016.9 CENTRAL LI SOUND NOT AVBL EASTERN LI SOUND 1000 68 64 110/ 8/ 8 N/A ROBBINS REEF 1000 73 180/ 7/ 8 1016.3 $$ >>>>>>>>>>>>>>>>>>>>>>>>>>>> KEY <<<<<<<<<<<<<<<<<<<<<<<<<<< > < > SKY/WX - SKY CONDITION/PRESENT WEATHER < > TMP - TEMPERATURE IN FAHRENHEIT < > DP - DEWPOINT IN FAHRENHEIT < > RH - RELATIVE HUMIDITY IN PERCENT < > WIND - DIRECTION AND SPEED IN MPH < > PRES - MEAN SEA LEVEL PRESSURE IN INCHES OF HG < > WCI - WIND CHILL INDEX < > VSB - VISIBILITY IN MILES < > HX - HEAT INDEX < > TC - TEMPERATURE IN CELSIUS < > VRB - VARIABLE WIND DIRECTION < > < >>>>>>>>>>>>>>>>>>>>>>>>>>>> KEY <<<<<<<<<<<<<<<<<<<<<<<<<<<

USA.gov is the U.S. government's official web portal to all federal, state and local government web resources and services.